This demonstration page uses our WeatherBlox Daily Observations layout. Learn more.

Left ArrowRight Arrow

31.84235, -102.49876

Hourly Observations for December 3, 2022

Temp ( °F °C ) Dew Point ( °F °C ) Humidity (%) Winds ( mph kmh ) Pressure ( in mb ) Visibility ( mi km ) Precip ( " mm )
12:53 am 00:53 Clear 56 13.3 N/A N/A Calm 30.15 1021 10 16 0.00 0.00
1:53 am 01:53 Clear 53 11.7 N/A N/A E 7 11 30.16 1021 10 16 0.00 0.00
2:53 am 02:53 Clear 53 11.7 N/A N/A ESE 3 6 30.19 1022 10 16 0.00 0.00
3:53 am 03:53 Hazy 50 10 N/A N/A ENE 23 37 30.25 1024 6 10 0.00 0.00
4:31 am 04:31 Mostly Cloudy with Haze 48 8.9 N/A N/A ENE 21 33 30.36 1028 5 8 0.00 0.00
4:53 am 04:53 Cloudy with Haze 47 8.3 N/A N/A NE 21 33 30.29 1026 5 8 0.00 0.00
5:14 am 05:14 Partly Cloudy 46 7.8 N/A N/A NE 26 43 30.38 1029 7 11 0.00 0.00
5:53 am 05:53 Clear 44 6.7 N/A N/A NE 22 35 30.33 1027 9 14 0.00 0.00
6:53 am 06:53 Clear 43 6.1 N/A N/A ENE 18 30 30.37 1029 10 16 0.00 0.00
7:53 am 07:53 Sunny 41 5 N/A N/A ENE 18 30 30.42 1030 10 16 0.00 0.00
8:53 am 08:53 Sunny 42 5.6 N/A N/A ENE 20 31 30.44 1031 10 16 0.00 0.00
9:53 am 09:53 Sunny 45 7.2 N/A N/A NE 17 28 30.47 1032 10 16 0.00 0.00
10:53 am 10:53 Sunny 46 7.8 N/A N/A NE 14 22 30.49 1033 10 16 0.00 0.00
11:53 am 11:53 Sunny 49 9.4 20 -6.7 31 31 NE 12 19 30.46 1032 10 16 0.00 0.00
12:53 pm 12:53 Sunny 50 10 20 -6.7 30 30 NNE 9 15 30.42 1030 10 16 0.00 0.00
1:53 pm 13:53 Sunny 51 10.6 20 -6.7 29 29 NE 10 17 30.38 1029 10 16 0.00 0.00
2:53 pm 14:53 Sunny 54 12.2 20 -6.7 26 26 E 9 15 30.33 1027 10 16 0.00 0.00
3:53 pm 15:53 Sunny 53 11.7 20 -6.7 27 27 ENE 10 17 30.32 1027 10 16 0.00 0.00
4:53 pm 16:53 Sunny 52 11.1 20 -6.7 28 28 E 9 15 30.32 1027 10 16 0.00 0.00
5:53 pm 17:53 Clear 49 9.4 22 -5.6 34 34 E 6 9 30.33 1027 10 16 0.00 0.00
6:53 pm 18:53 Mostly Clear 47 8.3 26 -3.3 44 44 E 5 7 30.35 1028 10 16 0.00 0.00
7:53 pm 19:53 Clear 48 8.9 23 -5 37 37 E 7 11 30.36 1028 10 16 0.00 0.00
8:53 pm 20:53 Clear 45 7.2 25 -3.9 45 45 NE 6 9 30.38 1029 10 16 0.00 0.00
9:53 pm 21:53 Clear 42 5.6 29 -1.7 59 59 NE 8 13 30.36 1028 10 16 0.00 0.00
10:53 pm 22:53 Clear 42 5.6 27 -2.8 55 55 ENE 7 11 30.35 1028 10 16 0.00 0.00
11:53 pm 23:53 Clear 41 5 27 -2.8 57 57 ENE 6 9 30.35 1028 10 16 0.00 0.00

Powered by AerisWeather